Retour au catalogue

GALAXY 30

ActifCommunicationsGEO
NORAD 46114·PAYLOAD·🇺🇸 United States

Lancé Aug 15, 2020 depuis Guiana Space Centre

Loading…

TLE

FraisSource: CelesTrak SupGP

Époque: Sep 14, 2026, 00:00 UTC

1 46114C 20056C   26257.00000000  .00000132  00000+0  00000+0 0  2572
2 46114   0.0000 156.5902 0002142   6.4168  64.9808  1.00270815    10

Suivez GALAXY 30 en temps réel avec AllMySat

Download on the App Store